Tracking 32932 objects as of 14-Jan-2026
HD Live streaming from Space Station
objects crossing your sky now

STARLINK-11511

Track STARLINK-11511 now!
10-day predictions
STARLINK-11511 is classified as:


NORAD ID: 62468
Int'l Code: 2024-254G
Perigee: 361.8 km
Apogee: 365.2 km
Inclination: 43.0 °
Period: 91.7 minutes
Semi major axis: 6734 km
RCS: Unknown
Launch date: December 31, 2024
Source: United States (US)
Launch site: AIR FORCE EASTERN TEST RANGE (AFETR)
Your satellite tracking list
Your tracking list is empty




NASA's NSSDC Master Catalog

Two Line Element Set (TLE):
1 62468U 24254G   26013.77037551  .00158793  00000-0  12149-2 0  9992
2 62468  43.0015 194.0341 0002470 274.5611  85.4975 15.70889549 60765
Source of the keplerian elements: AFSPC